timestamp,surface_pressure_avg,surface_temp_avg,battery_voltage,lat,long
2018-02-21 00:00:00+00:00,267.2431,0.7,12.81,47.84626,-54.09684
2018-02-21 00:10:00+00:00,272.6698,0.7,12.73,47.84626,-54.09684
2018-02-21 00:20:00+00:00,282.6281,0.7,12.81,47.84626,-54.09684
2018-02-21 00:30:00+00:00,287.2581,0.7,12.81,47.84626,-54.09684
2018-02-21 00:40:00+00:00,289.118,0.7,12.81,47.84626,-54.09684
2018-02-21 00:50:00+00:00,299.578,0.7,12.81,47.84626,-54.09684
2018-02-21 01:00:00+00:00,311.1263,0.7,12.81,47.84626,-54.09684
2018-02-21 01:10:00+00:00,314.0945,0.7,12.73,47.84626,-54.09684
2018-02-21 01:20:00+00:00,319.2497,0.69,12.81,47.84626,-54.09684
2018-02-21 01:30:00+00:00,326.2247,0.69,12.81,47.84626,-54.09684
2018-02-21 01:40:00+00:00,333.4547,0.7,12.81,47.84626,-54.09684
2018-02-21 01:50:00+00:00,333.2646,0.69,12.81,47.84626,-54.09684
2018-02-21 02:00:00+00:00,335.213,0.6,12.73,47.84626,-54.09684
2018-02-21 02:10:00+00:00,339.4413,0.6,12.73,47.84626,-54.09684
2018-02-21 02:20:00+00:00,341.7747,0.6,12.81,47.84626,-54.09684
2018-02-21 02:30:00+00:00,343.5912,0.6,12.81,47.84626,-54.09684
2018-02-21 02:40:00+00:00,348.3263,0.6,12.81,47.84626,-54.09684
2018-02-21 02:50:00+00:00,352.1113,0.6,12.81,47.84626,-54.09684
2018-02-21 03:00:00+00:00,352.2963,0.6,12.73,47.84626,-54.09684
2018-02-21 03:10:00+00:00,353.1645,0.6,12.73,47.84626,-54.09684
2018-02-21 03:20:00+00:00,353.7113,0.6,12.81,47.84626,-54.09684
2018-02-21 03:30:00+00:00,351.6595,0.6,12.81,47.84626,-54.09684
2018-02-21 03:40:00+00:00,347.8696,0.6,12.81,47.84626,-54.09684
2018-02-21 03:50:00+00:00,343.5397,0.6,12.81,47.84626,-54.09684
2018-02-21 04:00:00+00:00,343.6064,0.6,12.73,47.84626,-54.09684
2018-02-21 04:10:00+00:00,343.6746,0.6,12.73,47.84626,-54.09684
2018-02-21 04:20:00+00:00,341.8697,0.6,12.81,47.84626,-54.09684
2018-02-21 04:30:00+00:00,337.4313,0.59,12.73,47.84626,-54.09684
2018-02-21 04:40:00+00:00,334.2112,0.59,12.81,47.84626,-54.09684
2018-02-21 04:50:00+00:00,332.908,0.56,12.81,47.84626,-54.09684
2018-02-21 05:00:00+00:00,327.5279,0.5,12.73,47.84626,-54.09684
2018-02-21 05:10:00+00:00,321.6013,0.43,12.73,47.84626,-54.09684
2018-02-21 05:20:00+00:00,318.653,0.4,12.73,47.84626,-54.09684
2018-02-21 05:30:00+00:00,309.7664,0.45,12.73,47.84626,-54.09684
2018-02-21 05:40:00+00:00,303.3614,0.46,12.81,47.84626,-54.09684
2018-02-21 05:50:00+00:00,298.7147,0.48,12.81,47.84626,-54.09684
2018-02-21 06:00:00+00:00,291.3813,0.5,12.73,47.84626,-54.09684
2018-02-21 06:10:00+00:00,280.4031,0.33,12.65,47.84626,-54.09684
2018-02-21 06:20:00+00:00,272.9397,0.32,12.73,47.84626,-54.09684
2018-02-21 06:30:00+00:00,270.6114,0.39,12.73,47.84626,-54.09684
2018-02-21 06:40:00+00:00,264.9831,0.4,12.73,47.84626,-54.09684
2018-02-21 06:50:00+00:00,254.4215,0.4,12.73,47.84626,-54.09684
2018-02-21 07:00:00+00:00,248.3564,0.38,12.73,47.84626,-54.09684
2018-02-21 07:10:00+00:00,242.7281,0.4,12.65,47.84626,-54.09684
2018-02-21 07:20:00+00:00,229.5631,0.36,12.73,47.84626,-54.09684
2018-02-21 07:30:00+00:00,216.3681,0.3,12.73,47.84626,-54.09684
2018-02-21 07:40:00+00:00,212.7398,0.3,12.73,47.84626,-54.09684
2018-02-21 07:50:00+00:00,207.9498,0.3,12.73,47.84626,-54.09684
2018-02-21 08:00:00+00:00,198.718,0.3,12.65,47.84626,-54.09684
2018-02-21 08:10:00+00:00,202.4348,0.3,12.65,47.84626,-54.09684
2018-02-21 08:20:00+00:00,206.1281,0.3,12.73,47.84626,-54.09684
2018-02-21 08:30:00+00:00,194.0331,0.3,12.73,47.84626,-54.09684
2018-02-21 08:40:00+00:00,194.2831,0.23,12.73,47.84626,-54.09684
2018-02-21 08:50:00+00:00,206.4948,0.2,12.73,47.84626,-54.09684
2018-02-21 09:00:00+00:00,204.8948,0.23,12.65,47.84626,-54.09684
2018-02-21 09:10:00+00:00,201.2614,0.24,12.65,47.84626,-54.09684
2018-02-21 09:20:00+00:00,203.9614,0.25,12.73,47.84626,-54.09684
2018-02-21 09:30:00+00:00,206.7264,0.29,12.73,47.84626,-54.09684
2018-02-21 09:40:00+00:00,207.8514,0.3,12.73,47.84626,-54.09684
2018-02-21 09:50:00+00:00,207.8598,0.29,12.73,47.84626,-54.09684
2018-02-21 10:00:00+00:00,211.1147,0.28,12.65,47.84626,-54.09684
2018-02-21 10:10:00+00:00,216.0564,0.3,12.65,47.84626,-54.09684
2018-02-21 10:20:00+00:00,218.6981,0.23,12.73,47.84626,-54.09684
2018-02-21 10:30:00+00:00,216.9666,0.2,12.73,47.84626,-54.09684
2018-02-21 10:40:00+00:00,215.2948,0.1,12.73,47.84626,-54.09684
2018-02-21 10:50:00+00:00,226.4881,0.12,12.73,47.84626,-54.09684
2018-02-21 11:00:00+00:00,235.8581,0.2,12.65,47.84626,-54.09684
2018-02-21 11:10:00+00:00,232.9247,0.22,12.65,47.84626,-54.09684
2018-02-21 11:20:00+00:00,236.5581,0.2,12.73,47.84626,-54.09684
2018-02-21 11:30:00+00:00,253.0564,0.24,12.73,47.84626,-54.09684
2018-02-21 11:40:00+00:00,260.3231,0.3,12.73,47.84626,-54.09684
2018-02-21 11:50:00+00:00,253.1447,0.3,12.73,47.84626,-54.09684
2018-02-21 12:00:00+00:00,253.5514,0.3,12.65,47.84626,-54.09684
2018-02-21 12:10:00+00:00,272.313,0.3,12.65,47.84626,-54.09684
2018-02-21 12:20:00+00:00,278.7913,0.3,12.73,47.84626,-54.09684
2018-02-21 12:30:00+00:00,278.7448,0.3,12.81,47.84626,-54.09684
2018-02-21 12:40:00+00:00,283.7347,0.3,13.05,47.84626,-54.09684
2018-02-21 12:50:00+00:00,300.1747,0.3,13.68,47.84626,-54.09684
2018-02-21 13:00:00+00:00,300.223,0.3,13.44,47.84626,-54.09684
2018-02-21 13:10:00+00:00,301.0663,0.3,13.21,47.84626,-54.09684
2018-02-21 13:20:00+00:00,307.848,0.3,13.21,47.84626,-54.09684
2018-02-21 13:30:00+00:00,319.2813,0.3,13.21,47.84626,-54.09684
2018-02-21 13:40:00+00:00,321.4496,0.3,13.37,47.84626,-54.09684
2018-02-21 13:50:00+00:00,334.3763,0.3,13.29,47.84626,-54.09684
2018-02-21 14:00:00+00:00,341.403,0.3,13.13,47.84626,-54.09684
2018-02-21 14:10:00+00:00,344.1529,0.3,12.97,47.84626,-54.09684
2018-02-21 14:20:00+00:00,342.6329,0.31,13.05,47.84626,-54.09684
2018-02-21 14:30:00+00:00,346.5061,0.45,13.05,47.84626,-54.09684
2018-02-21 14:40:00+00:00,346.5129,0.4,13.05,47.84626,-54.09684
2018-02-21 14:50:00+00:00,346.6446,0.38,13.21,47.84626,-54.09684
2018-02-21 15:00:00+00:00,348.7645,0.69,13.37,47.84626,-54.09684
2018-02-21 15:10:00+00:00,342.6313,0.7,13.13,47.84626,-54.09684
2018-02-21 15:20:00+00:00,334.9196,0.6,13.13,47.84626,-54.09684
2018-02-21 15:30:00+00:00,331.2963,0.57,13.05,47.84626,-54.09684
2018-02-21 15:40:00+00:00,339.278,0.61,13.05,47.84626,-54.09684
2018-02-21 15:50:00+00:00,341.5696,0.8,13.05,47.84626,-54.09684
2018-02-21 16:00:00+00:00,335.8097,0.6,12.97,47.84626,-54.09684
2018-02-21 16:10:00+00:00,334.698,0.64,12.89,47.84626,-54.09684
2018-02-21 16:20:00+00:00,333.3196,0.6,12.97,47.84626,-54.09684
2018-02-21 16:30:00+00:00,327.8513,0.58,12.97,47.84626,-54.09684
2018-02-21 16:40:00+00:00,326.2297,0.5,12.97,47.84626,-54.09684
2018-02-21 16:50:00+00:00,333.6363,0.64,12.97,47.84626,-54.09684
2018-02-21 17:00:00+00:00,344.2247,0.7,12.89,47.84626,-54.09684
2018-02-21 17:10:00+00:00,332.1246,0.69,12.81,47.84626,-54.09684
2018-02-21 17:20:00+00:00,324.6831,0.69,12.97,47.84626,-54.09684
2018-02-21 17:30:00+00:00,322.7112,0.75,12.89,47.84626,-54.09684
2018-02-21 17:40:00+00:00,313.9446,0.81,12.97,47.84626,-54.09684
2018-02-21 17:50:00+00:00,314.0396,0.88,12.97,47.84626,-54.09684
2018-02-21 18:00:00+00:00,303.2997,0.8,12.81,47.84626,-54.09684
2018-02-21 18:10:00+00:00,280.3781,0.8,12.81,47.84626,-54.09684
2018-02-21 18:20:00+00:00,259.5514,0.79,12.81,47.84626,-54.09684
2018-02-21 18:30:00+00:00,258.743,0.79,12.81,47.84626,-54.09684
2018-02-21 18:40:00+00:00,253.1598,0.86,12.81,47.84626,-54.09684
2018-02-21 18:50:00+00:00,236.9931,0.86,12.81,47.84626,-54.09684
2018-02-21 19:00:00+00:00,228.6931,0.71,12.81,47.84626,-54.09684
2018-02-21 19:10:00+00:00,232.4314,0.8,12.73,47.84626,-54.09684
2018-02-21 19:20:00+00:00,223.6198,0.8,12.81,47.84626,-54.09684
2018-02-21 19:30:00+00:00,213.2048,0.7,12.81,47.84626,-54.09684
2018-02-21 19:40:00+00:00,214.2331,0.78,12.81,47.84626,-54.09684
2018-02-21 19:50:00+00:00,209.1131,0.7,12.81,47.84626,-54.09684
2018-02-21 20:00:00+00:00,195.0714,0.7,12.73,47.84626,-54.09684
2018-02-21 20:10:00+00:00,184.4948,0.7,12.73,47.84626,-54.09684
2018-02-21 20:20:00+00:00,185.4514,0.77,12.81,47.84626,-54.09684
2018-02-21 20:30:00+00:00,188.4832,0.8,12.81,47.84626,-54.09684
2018-02-21 20:40:00+00:00,180.2831,0.8,12.81,47.84626,-54.09684
2018-02-21 20:50:00+00:00,175.1514,0.8,12.81,47.84626,-54.09684
2018-02-21 21:00:00+00:00,178.9098,0.93,12.73,47.84626,-54.09684
2018-02-21 21:10:00+00:00,180.2132,0.94,12.65,47.84626,-54.09684
2018-02-21 21:20:00+00:00,186.6198,0.88,12.73,47.84626,-54.09684
2018-02-21 21:30:00+00:00,191.0598,0.82,12.73,47.84626,-54.09684
2018-02-21 21:40:00+00:00,192.8615,0.8,12.73,47.84626,-54.09684
2018-02-21 21:50:00+00:00,195.4414,0.8,12.81,47.84626,-54.09684
2018-02-21 22:00:00+00:00,203.6648,0.79,12.73,47.84626,-54.09684
2018-02-21 22:10:00+00:00,214.9098,0.79,12.65,47.84626,-54.09684
2018-02-21 22:20:00+00:00,220.3397,0.8,12.73,47.84626,-54.09684
2018-02-21 22:30:00+00:00,223.2131,0.79,12.73,47.84626,-54.09684
2018-02-21 22:40:00+00:00,226.7498,0.79,12.73,47.84626,-54.09684
2018-02-21 22:50:00+00:00,229.3814,0.78,12.73,47.84626,-54.09684
2018-02-21 23:00:00+00:00,233.6631,0.76,12.73,47.84626,-54.09684
2018-02-21 23:10:00+00:00,235.7765,0.73,12.65,47.84626,-54.09684
2018-02-21 23:20:00+00:00,242.6098,0.7,12.73,47.84626,-54.09684
2018-02-21 23:30:00+00:00,242.7348,0.7,12.73,47.84626,-54.09684
2018-02-21 23:40:00+00:00,244.5497,0.7,12.73,47.84626,-54.09684
2018-02-21 23:50:00+00:00,244.4564,0.7,12.73,47.84626,-54.09684
